Regional Weather Roundup
Issued by NWS Green Bay, WI

Home | Current Version | Previous Version | Graphics & Text | Print | Product List | Glossary Off
Versions: 1 2 3 4 5 6 7 8 9 10 11 12 13 14 15 16 17 18 19 20 21 22 23 24 25 26 27 28 29 30 31 32 33 34 35 36 37 38 39 40 41 42 43 44 45 46 47 48 49 50

000
ASUS43 KGRB 300200
RWRGRB

NORTH-CENTRAL AND NORTHEAST WISCONSIN REGIONAL WEATHER ROUNDUP
NATIONAL WEATHER SERVICE GREEN BAY WI
900 PM CDT MON AUG 29 2016

WIZ005-009-010>012-018-019-300300-
NORTH CENTRAL WISCONSIN

CITY           SKY/WX    TMP DP  RH WIND       PRES   REMARKS
IRONWOOD       TSTM      67  65  93 W6        30.15R
MANITOWISH WTR NOT AVBL
ARBOR VITAE    NOT AVBL
EAGLE RIVER    NOT AVBL
LAND O LAKES   NOT AVBL
RHINELANDER    CLOUDY    73  71  93 SW7       30.18S
PHILLIPS       CLOUDY    71  70  95 SW3       30.17S
ANTIGO         NOT AVBL
TOMAHAWK       NOT AVBL
MERRILL        PTCLDY    73  72  95 SW5       30.19R
$$

WIZ013-073-300300-
NORTHEAST WISCONSIN

CITY           SKY/WX    TMP DP  RH WIND       PRES   REMARKS
IRON MOUNTAIN  CLOUDY    71  68  90 CALM      30.13S
MARINETTE      PTCLDY   N/A N/A N/A SW7       30.14
$$

WIZ017-030-035>037-045-300300-
CENTRAL WISCONSIN

CITY           SKY/WX    TMP DP  RH WIND       PRES   REMARKS
MEDFORD        NOT AVBL
WAUSAU         CLEAR     74  69  85 S3        30.17R
MOSINEE        CLEAR     70  70 100 CALM      30.19R
MARSHFIELD     CLEAR     72  68  87 SW5       30.19R
WISC RAPIDS    CLEAR     72  71  97 CALM      30.20R
STEVENS POINT  NOT AVBL
WAUPACA        NOT AVBL
SHAWANO        NOT AVBL
CLINTONVILLE   PTCLDY    73  70  88 SW5       30.16S
WAUTOMA        PTCLDY    70  69  97 CALM      30.18R
$$

WIZ038-039-048-051-300300-
FOX VALLEY

CITY           SKY/WX    TMP DP  RH WIND       PRES   REMARKS
NWS GREEN BAY  PTCLDY    73  71  93 S5        30.16S
APPLETON       MOCLDY    73  66  78 VRB5      30.16S
OSHKOSH        PTCLDY    72  69  90 S5        30.17R
FOND DU LAC    PTCLDY    72  68  87 CALM      30.18R
$$

WIZ022-050-052-300300-
EAST CENTRAL WISCONSIN

CITY           SKY/WX    TMP DP  RH WIND       PRES   REMARKS
EPHRAIM        NOT AVBL
WASHINGTON ISL NOT AVBL
STURGEON BAY   MOCLDY    71  65  81 S8        30.16S
MANITOWOC      NOT AVBL
SHEBOYGAN      PTCLDY    68  63  84 SW3       30.18S
$$

LMZ563-521-522-541>543-300300-
LAKESHORE

STATION/POSITION TIME  TEMP    WIND        PRES    VSBY  WAVE
                       AIR SEA DIR/SP/G                  HT/PER
                 (UTC) (F)     (DEG/KT/KT) (MB)    (MI)  (FT/S)
SHEBOYGAN LKSHOR 0100   72     170/  4/  5 1021.2F
KEWAUNEE LKSHORE 0100   66     180/  7/  8 1021.2F
NORTHPORT PIER   0100   73     170/  4/  7 1020.7S
N MID LAKE BUOY  0050   72 71  200/ 12/ 14 1020.3F         1/ 3
S GREEN BAY BUOY 0100   77 74  180/ 10/ 12 1020.4
CHAMBERS ISLAND  0100   74     160/  4/ 10 1020.3S
MENOMINEE LKSHOR 0100   74     180/  8/ 10 1019.9F
$$



USA.gov is the U.S. government's official web portal to all federal, state and local government web resources and services.